TimePDT,TemperatureF,Dew PointF,Humidity,Sea Level PressureIn,VisibilityMPH,Wind Direction,Wind SpeedMPH,Gust SpeedMPH,PrecipitationIn,Events,Conditions,WindDirDegrees,DateUTC
12:53 AM,48.9,37.0,64,30.01,10.0,Calm,Calm,-,N/A,,Clear,0,2012-10-07 07:53:00
1:53 AM,46.9,37.0,68,30.01,10.0,Calm,Calm,-,N/A,,Clear,0,2012-10-07 08:53:00
2:53 AM,46.0,37.0,71,30.01,10.0,Calm,Calm,-,N/A,,Clear,0,2012-10-07 09:53:00
3:53 AM,44.1,37.0,76,30.01,10.0,Calm,Calm,-,N/A,,Clear,0,2012-10-07 10:53:00
4:53 AM,43.0,36.0,76,30.02,10.0,Calm,Calm,-,N/A,,Clear,0,2012-10-07 11:53:00
5:53 AM,42.1,36.0,79,30.02,10.0,Calm,Calm,-,N/A,,Clear,0,2012-10-07 12:53:00
6:53 AM,39.9,35.1,83,30.03,10.0,Calm,Calm,-,N/A,,Clear,0,2012-10-07 13:53:00
7:53 AM,41.0,36.0,82,30.04,10.0,Calm,Calm,-,N/A,,Clear,0,2012-10-07 14:53:00
8:53 AM,44.1,37.0,76,30.05,10.0,Calm,Calm,-,N/A,,Clear,0,2012-10-07 15:53:00
9:53 AM,50.0,39.0,66,30.04,10.0,Calm,Calm,-,N/A,,Clear,0,2012-10-07 16:53:00
10:53 AM,57.0,39.9,53,30.03,10.0,Calm,Calm,-,N/A,,Clear,0,2012-10-07 17:53:00
11:53 AM,63.0,39.9,43,30.00,10.0,Calm,Calm,-,N/A,,Clear,0,2012-10-07 18:53:00
12:53 PM,66.9,37.9,34,29.97,10.0,Calm,Calm,-,N/A,,Clear,0,2012-10-07 19:53:00
1:53 PM,72.0,37.9,29,29.94,10.0,Calm,Calm,-,N/A,,Clear,0,2012-10-07 20:53:00
2:53 PM,77.0,30.9,19,29.91,10.0,North,5.8,-,N/A,,Clear,350,2012-10-07 21:53:00
3:53 PM,80.1,33.1,18,29.89,10.0,North,5.8,-,N/A,,Clear,10,2012-10-07 22:53:00
4:53 PM,81.0,30.9,16,29.88,10.0,North,8.1,-,N/A,,Clear,360,2012-10-07 23:53:00
5:53 PM,79.0,27.0,15,29.88,10.0,North,5.8,-,N/A,,Clear,350,2012-10-08 00:53:00
6:53 PM,73.0,28.9,20,29.89,10.0,North,3.5,-,N/A,,Clear,360,2012-10-08 01:53:00
7:53 PM,64.9,33.1,31,29.91,10.0,Calm,Calm,-,N/A,,Clear,0,2012-10-08 02:53:00
8:53 PM,60.1,35.1,39,29.92,10.0,Calm,Calm,-,N/A,,Clear,0,2012-10-08 03:53:00
9:53 PM,57.0,37.9,49,29.93,10.0,Calm,Calm,-,N/A,,Clear,0,2012-10-08 04:53:00
10:53 PM,55.0,37.9,53,29.94,10.0,Calm,Calm,-,N/A,,Clear,0,2012-10-08 05:53:00
11:53 PM,52.0,39.0,61,29.94,10.0,Calm,Calm,-,N/A,,Clear,0,2012-10-08 06:53:00